星链-5419 (STARLINK-5419 )

导读 | 豆包AI

STARLINK-5419是美国太空探索技术公司(SpaceX)星链(Starlink)星座的一颗卫星,于2022年12月28日发射,属于星链互联网卫星星座的组网卫星,旨在为全球提供低延迟、高速率的宽带互联网服务,目前已在轨运行超三年,承担卫星互联网组网运营任务。

Basic Information
目录编号:
54854
目录名称:
STARLINK-5419
国际标识:
2022-177AL
轨道中心:
EARTH
卫星名称:
星链-5419
卫星全名:
星链-5419 (STARLINK-5419 )
卫星状态:
已陨落 最后检测时间 2025-07-06
发射日期:
2022-12-28 UTC
国别 :
美国 (US)
星等 :
--
Orbit Information
数据来源 国际轨道数据
星历时间: 2025-07-06T05:32:22+0800
轨道信息已过期298天
半长轴: 6538.451km
偏心率: 0.0009205
轨道倾角: 42.993°
近地点辐角 304.371°
升交点赤经 345.827°
平近点角 185.169°
近地点: 154.297km
远地点: 166.335km
周期: 87.694分钟
每日圈数: 16.420657
Detailed Information
固有亮度:
5
最大亮度:
2.5
卫星平台:
Starlink v1.5
覆盖范围:
全球
运营商:
太空探索技术公司
运营商所在国:
美国
制造商(研发单位):
太空探索技术公司
制造商所在国:
美国
使用方式:
暂无
Satellite Introduction
星链(Starlink)计划是由太空探索技术公司(SpaceX)提出的一个巨型低轨卫星互联网星座项目,计划在2019年至2024年间在太空搭建由约1.2万颗卫星组成的“星链”网络,其中1584颗将部署在地球上空550千米处的近地轨道,并从2020年开始工作。该卫星仍在工作。